Theta_e
351 351 351 347 355 359 363 358 351 351 352 350 348 348 350 353 355 356 348 348 346 349 350 351 350 352 349 348 348 350 349 348 347 348 347 346 346 345 346 350 347 347 343 343 351 348 345 348 342
353 353 349 348 357 365 363 353 354 351 349 348 348 348 351 356 351 349 348 349 346 349 351 351 349 349 348 348 347 349 351 348 347 346 345 345 347 346 346 349 349 344 350 351 352 351 351 350 344
349 349 351 352 356 365 363 355 354 352 348 347 349 347 349 353 349 348 349 349 347 350 351 351 349 350 350 345 345 350 351 347 347 346 344 345 345 343 344 345 346 350 349 351 351 350 347 343 343
349 350 349 354 356 356 356 354 352 351 348 346 347 351 348 347 347 349 350 348 347 349 350 350 347 347 348 347 344 345 348 347 346 347 348 347 344 343 344 345 349 351 348 347 344 346 340 343 342
351 350 356 358 357 355 351 350 350 354 353 348 346 351 350 349 349 350 349 347 347 347 349 351 346 347 349 346 345 346 348 345 345 345 346 347 343 344 347 346 351 350 351 351 348 341 339 341 343
352 347 359 360 356 353 350 350 351 353 350 347 348 349 350 348 350 350 348 347 347 346 348 349 348 346 346 347 350 349 348 346 344 344 343 346 343 346 344 349 352 351 351 351 349 344 340 341 343
352 354 358 358 357 355 352 350 354 353 348 347 345 351 349 348 349 348 348 348 347 347 348 347 349 349 348 351 350 348 347 349 345 344 343 344 337 346 342 350 352 352 351 351 345 340 340 342 342
350 352 355 354 356 356 351 350 352 349 350 344 344 350 351 348 347 347 348 348 348 347 346 344 345 349 348 349 349 349 351 347 348 343 344 344 345 344 343 349 350 350 350 349 341 339 339 344 343
342 354 356 354 355 354 351 350 349 348 346 347 346 346 345 346 346 346 346 346 346 346 347 347 347 347 348 347 346 346 345 350 345 342 343 345 346 344 348 350 350 351 347 345 341 340 337 338 344
348 354 352 348 350 352 352 350 349 351 349 349 348 346 346 346 346 345 344 344 344 346 347 347 348 347 345 344 344 345 344 347 343 340 344 343 346 346 351 349 351 349 348 345 344 338 340 341 339
348 355 354 351 348 350 351 352 350 350 351 348 346 348 347 346 346 345 344 343 344 345 346 346 345 345 344 344 344 343 344 343 341 343 340 342 344 346 346 349 348 346 344 349 348 345 346 341 342
354 354 354 352 348 348 352 349 351 348 348 345 344 346 347 347 346 345 344 344 344 344 345 343 343 342 344 343 344 343 344 342 342 339 341 343 346 345 343 347 343 341 346 344 345 343 344 343 342
354 354 352 350 350 350 349 351 352 349 347 344 345 346 347 346 346 345 344 343 343 342 342 343 342 342 343 343 341 341 341 338 338 339 339 343 344 345 344 342 341 343 344 345 342 338 347 347 349
351 353 351 350 351 350 350 350 349 349 346 345 346 347 346 346 346 346 344 343 343 342 342 342 342 342 343 341 338 338 338 336 340 340 338 343 345 345 347 345 344 345 344 344 338 338 346 350 348
348 352 352 351 350 350 348 351 349 347 347 347 347 346 346 346 345 345 344 343 343 342 342 341 342 342 342 340 338 338 337 341 342 341 342 344 346 346 346 346 345 340 344 345 344 341 343 344 347
345 352 357 353 351 348 348 356 351 347 348 349 348 347 346 346 345 345 344 342 343 343 342 342 340 341 341 339 337 338 339 340 336 340 342 343 347 348 347 347 344 343 344 338 341 343 345 346 345
346 342 354 355 351 350 351 353 349 347 347 350 349 348 347 346 346 346 345 343 343 343 343 342 342 342 338 336 337 340 340 342 343 344 344 345 348 346 348 347 343 342 346 345 342 345 346 345 346
336 335 347 353 352 351 353 354 347 348 347 348 349 349 348 347 346 345 345 344 344 345 343 343 343 344 343 341 338 340 341 342 343 343 344 345 348 345 347 346 346 348 346 345 343 347 346 345 344
337 339 340 349 349 354 354 353 350 347 348 348 349 349 348 347 345 345 345 345 344 345 345 343 343 343 345 346 345 345 346 347 345 344 343 345 347 344 348 348 346 348 348 346 346 348 345 344 339
337 334 338 347 351 353 354 355 352 349 347 347 347 348 348 346 346 345 345 345 345 346 346 345 342 343 344 346 346 344 345 345 345 342 342 346 345 345 343 347 347 348 349 347 344 341 342 341 340
331 332 335 343 354 352 354 356 356 351 349 346 345 345 345 346 345 346 345 345 345 346 346 347 343 341 344 345 344 345 343 344 346 345 345 345 346 346 346 348 347 348 350 350 346 348 344 340 344
329 330 333 347 350 348 351 352 352 348 352 350 347 344 344 345 344 344 344 345 345 345 346 346 344 341 344 343 346 347 346 346 347 348 348 347 345 346 346 347 348 347 348 348 348 345 345 341 347
326 338 337 347 349 349 351 356 347 347 349 351 349 345 343 343 343 344 343 343 343 345 345 346 345 344 345 344 345 347 348 347 347 347 344 346 346 345 346 345 347 348 347 347 348 348 344 347 348
330 345 348 350 354 352 345 349 343 347 350 347 347 347 344 344 343 343 342 342 341 344 344 345 346 344 345 343 343 346 346 347 347 348 349 348 349 347 344 345 345 348 347 347 343 349 347 349 350
333 339 337 343 353 337 344 350 343 343 342 343 343 344 345 343 344 345 344 342 341 343 342 344 346 347 344 347 347 347 346 347 348 344 347 349 348 348 347 344 344 348 348 347 348 343 349 350 348
329 330 329 330 342 334 346 346 338 339 339 343 342 342 344 345 344 345 345 344 344 344 343 344 346 346 344 345 348 347 344 347 347 347 347 347 348 348 348 345 345 347 349 349 347 348 349 349 353
327 330 328 332 334 337 334 339 337 342 344 344 344 345 345 345 345 345 346 345 344 344 345 342 342 343 343 344 347 347 346 344 347 346 345 345 343 347 345 345 347 346 349 350 351 351 350 350 355
325 325 327 330 331 331 337 344 338 341 348 347 346 347 347 346 345 345 346 346 346 346 346 346 346 347 345 344 348 348 348 348 348 346 345 344 344 343 343 343 347 349 346 348 350 352 350 349 352
325 326 329 332 335 335 335 334 339 341 346 348 347 346 348 348 347 346 346 346 347 345 346 347 348 348 348 347 348 348 348 349 348 349 346 347 346 345 343 346 349 349 348 350 349 349 352 352 352
325 327 328 328 334 338 337 334 338 340 341 345 346 346 347 347 347 346 345 346 346 346 346 347 348 349 349 349 347 349 349 349 349 350 350 347 347 346 346 347 347 349 346 348 351 349 351 351 351
Wind_Speed
9 8 4 1 1 1 3 4 2 4 3 2 4 1 1 4 2 2 4 4 15 16 14 12 15 14 12 10 10 11 11 12 10 10 9 8 7 8 8 8 9 10 10 10 10 10 9 9 8
8 4 0 0 0 3 3 4 12 8 7 7 6 4 3 3 4 7 11 8 16 15 13 12 13 14 12 12 11 10 9 10 9 9 8 8 7 8 8 9 10 10 12 11 10 9 9 9 9
7 2 1 2 2 3 5 5 5 2 3 2 3 5 2 3 4 10 4 16 16 14 13 12 12 13 12 11 11 9 9 9 8 8 8 7 6 7 8 10 11 11 11 11 9 8 7 8 8
3 2 2 1 2 2 6 5 1 2 4 4 6 6 4 4 6 3 12 17 15 13 12 12 12 10 11 11 9 9 8 9 8 7 6 6 6 8 10 11 10 12 10 9 8 7 8 7 6
1 1 2 2 1 1 2 1 1 2 0 4 1 4 3 3 5 10 13 14 13 12 11 10 11 10 10 10 11 9 8 9 8 7 6 4 8 9 12 10 10 9 8 7 6 6 7 7 6
0 1 2 1 0 1 2 2 1 3 3 4 4 5 3 3 8 11 12 11 10 11 11 9 9 10 11 11 10 8 9 8 8 7 6 8 12 8 11 10 9 8 8 7 6 7 6 5 4
1 1 2 1 1 3 3 5 1 4 6 4 7 3 4 8 9 9 10 10 10 9 9 10 9 8 9 9 10 9 10 7 7 7 4 9 12 8 8 8 8 8 8 8 7 8 6 5 3
2 0 0 1 3 2 4 4 2 4 5 8 2 2 5 10 11 10 10 9 9 8 8 10 10 11 10 9 9 9 10 9 8 8 7 10 9 10 8 8 7 7 7 7 8 9 5 4 4
1 0 2 2 4 2 6 4 3 3 8 4 3 2 7 17 13 11 10 9 7 6 6 6 8 9 11 12 8 8 9 10 10 12 9 9 10 10 8 7 6 6 5 6 5 6 10 5 4
2 0 1 1 2 3 8 3 7 6 6 3 7 12 17 17 13 10 8 8 7 6 6 6 7 7 9 8 8 10 10 13 14 14 9 9 10 10 6 7 7 5 4 3 3 2 2 3 2
2 2 3 1 3 8 5 4 3 6 3 4 8 13 14 15 11 8 7 5 6 8 7 6 6 6 6 8 10 12 14 16 16 13 11 9 9 7 6 5 4 4 4 4 3 2 3 1 5
1 4 2 2 4 6 3 3 4 3 2 3 12 14 13 12 11 9 8 6 5 6 6 6 6 5 6 10 13 15 17 18 15 13 9 8 8 7 5 4 4 4 3 2 2 1 1 5 5
1 1 4 4 5 4 4 6 2 4 5 10 15 13 11 11 10 8 6 6 5 6 5 5 6 6 8 16 16 15 18 16 11 12 13 6 7 5 4 5 4 3 3 0 2 2 4 4 3
4 7 5 3 5 4 4 3 3 4 7 10 13 12 11 11 11 9 9 8 7 6 5 6 7 10 12 15 16 13 17 11 11 12 13 6 4 4 4 5 5 4 3 3 2 5 3 3 5
2 4 4 3 1 2 5 1 3 4 9 10 12 10 10 9 10 11 10 10 8 8 7 7 8 11 13 14 14 14 13 10 12 10 4 4 6 7 6 4 3 3 2 2 2 5 5 5 6
2 2 2 4 4 3 5 6 11 6 5 9 11 11 11 11 13 12 11 11 10 9 8 8 8 10 11 15 17 14 14 9 14 8 3 8 8 7 5 3 2 2 1 2 3 6 7 8 7
0 4 2 2 8 3 6 3 3 9 6 9 11 12 11 11 12 14 13 13 12 11 11 10 10 11 13 15 17 17 14 7 9 7 6 8 7 5 6 3 5 0 2 2 3 6 6 6 6
2 5 2 4 7 7 8 11 1 12 11 11 13 13 13 13 14 16 16 14 14 13 13 12 12 11 12 13 16 15 14 11 7 8 9 9 6 4 5 3 2 2 4 3 3 4 4 3 6
3 5 7 3 5 9 11 11 11 10 15 15 13 14 16 16 15 15 18 17 15 15 15 15 14 13 13 12 12 11 11 9 8 8 12 10 7 6 6 3 4 3 2 2 2 2 2 2 3
7 8 7 1 5 10 5 15 16 15 19 19 18 17 17 15 11 16 19 19 19 17 17 16 16 15 15 12 10 8 7 7 5 9 11 10 7 6 4 3 4 3 2 1 3 1 2 2 4
10 9 7 4 5 6 7 9 8 11 17 15 20 19 18 17 13 14 19 21 20 19 19 17 18 18 16 14 11 7 9 6 6 9 10 10 9 6 5 4 4 4 2 2 2 3 1 2 2
13 4 9 6 5 3 2 6 6 5 12 17 17 19 17 17 14 14 18 21 23 23 19 18 18 20 18 17 13 11 10 8 7 9 10 10 10 7 6 6 5 5 4 2 3 2 2 2 1
5 4 1 4 3 5 4 4 3 2 7 16 18 18 19 18 17 17 21 24 26 22 22 21 22 20 19 20 18 13 10 8 7 7 11 11 9 8 7 7 8 5 4 4 5 5 2 1 1
6 8 8 5 1 3 1 4 6 3 3 3 12 19 20 20 18 17 20 17 21 20 21 20 21 23 21 21 21 18 14 11 9 10 9 10 9 8 9 9 10 9 7 6 6 5 4 2 2
7 6 1 1 2 4 1 5 10 5 9 11 9 13 20 19 19 17 16 20 24 23 25 21 22 23 24 21 19 20 18 15 12 12 11 10 10 9 10 11 11 10 10 9 9 8 7 5 4
12 9 4 5 4 5 2 5 4 3 7 6 4 7 13 18 19 18 18 22 22 24 24 23 22 22 23 24 21 20 19 15 14 13 12 11 12 10 10 10 11 12 12 10 10 9 8 8 5
6 7 1 2 1 4 3 6 11 4 4 2 3 6 12 16 19 20 19 22 22 26 26 32 28 26 23 25 21 22 20 19 15 15 15 15 15 12 12 11 12 13 13 12 11 10 11 8 7
6 11 4 2 5 7 3 5 6 4 6 4 4 6 8 11 14 15 16 19 20 23 23 21 21 22 23 23 21 22 20 19 17 16 16 15 15 15 15 14 13 13 14 13 11 10 10 11 10
5 5 2 2 2 3 4 5 3 5 7 9 7 7 7 10 13 14 15 16 16 17 19 20 20 18 18 20 20 21 21 20 18 16 17 16 15 15 14 13 12 14 14 14 14 15 13 12 11
4 7 14 8 7 1 3 6 2 4 6 5 5 7 6 8 10 11 13 16 18 18 18 18 16 16 17 16 21 20 19 18 18 18 17 18 16 14 14 14 13 12 12 12 15 17 15 14 13
Wind_Direction
139 145 137 146 194 77 60 43 36 100 53 2 108 280 121 56 358 16 124 148 153 146 146 144 145 135 132 133 130 121 116 119 123 122 131 131 131 131 125 126 120 114 122 120 113 111 121 128 131
139 133 61 119 143 134 98 46 92 79 132 107 90 76 49 75 57 108 133 141 151 147 147 148 147 143 145 142 134 130 128 125 135 136 139 140 139 135 124 116 109 116 116 116 112 113 118 129 126
143 158 325 56 102 140 125 119 99 51 260 111 110 64 50 52 83 141 139 148 149 150 150 154 154 152 151 147 146 134 138 134 141 149 160 159 157 144 135 115 116 118 112 109 112 116 120 122 121
160 125 99 17 152 116 121 134 45 73 98 75 116 92 98 20 137 152 143 149 150 150 151 155 163 159 153 153 154 150 148 145 145 150 150 153 153 150 127 125 124 112 113 113 115 119 124 124 124
124 130 61 84 22 99 170 209 109 80 319 107 127 111 88 59 88 136 144 153 153 152 150 151 158 162 161 165 165 160 151 150 154 169 151 154 137 128 127 129 116 111 106 101 116 131 129 141 135
118 284 34 32 20 206 262 142 198 150 124 121 97 110 94 107 124 135 143 152 158 156 154 154 154 154 161 166 155 163 153 166 167 171 159 125 121 127 124 127 122 111 94 83 91 95 121 146 142
345 40 25 80 71 198 207 154 191 148 98 79 122 104 117 124 136 138 141 148 154 161 164 163 159 158 165 164 166 173 162 159 165 148 133 136 132 132 133 130 122 103 91 89 94 101 128 146 164
115 73 119 190 160 218 142 148 197 87 92 121 107 131 155 151 143 137 138 140 149 159 173 185 178 173 170 177 178 182 169 164 158 147 130 134 135 141 149 139 118 114 107 96 97 95 104 139 135
118 301 347 331 183 148 152 173 199 96 125 102 47 82 126 142 147 144 138 135 143 155 170 174 179 181 184 190 183 181 162 152 151 148 140 140 137 144 134 139 139 123 121 104 117 93 80 84 174
201 254 309 231 191 199 170 151 157 155 136 104 89 97 130 143 157 159 157 149 161 163 148 145 149 168 180 178 175 163 157 157 148 150 152 140 137 143 148 146 161 142 140 134 137 161 1 31 162
161 319 327 35 153 146 148 154 126 146 159 194 156 146 148 154 167 164 156 149 146 159 156 151 150 164 183 167 144 149 158 160 144 155 164 149 141 144 163 165 164 162 166 167 204 252 293 74 96
280 37 25 77 148 163 137 136 116 127 89 160 146 152 154 168 174 174 169 154 151 161 161 164 151 145 143 151 147 144 147 147 152 159 157 141 146 138 160 169 174 193 202 215 230 198 98 112 83
227 68 49 109 123 115 97 71 50 178 102 121 139 152 170 176 175 187 174 161 161 176 170 158 146 140 140 140 137 145 146 144 150 152 143 127 135 125 158 177 190 223 251 319 156 109 100 104 100
68 86 101 106 108 113 128 31 126 91 130 137 151 170 181 186 180 189 192 182 173 181 177 155 138 133 138 138 139 129 146 142 154 159 161 165 158 166 200 195 225 243 235 178 148 84 82 74 84
113 103 115 120 141 123 144 182 186 118 157 161 171 181 197 196 189 207 203 196 189 179 177 169 137 141 138 138 136 144 149 145 153 150 139 111 137 158 153 162 212 224 188 180 262 20 38 77 65
185 182 265 170 193 171 254 241 204 166 157 195 184 188 208 204 202 211 213 204 194 179 180 177 158 151 149 146 146 151 160 145 143 155 136 148 136 136 144 167 187 159 76 63 46 37 46 55 52
304 325 263 196 204 188 229 295 164 175 177 206 207 207 213 217 206 210 215 206 195 190 180 182 182 171 157 154 156 155 164 183 181 195 185 168 142 141 128 125 161 293 319 327 7 17 40 49 59
308 322 284 243 194 214 219 253 239 189 198 216 218 209 216 226 222 210 208 205 196 193 190 186 185 180 175 171 172 185 202 219 212 199 177 171 155 138 125 133 150 281 294 338 329 19 15 46 70
280 292 302 264 181 196 234 263 243 206 208 218 215 211 213 222 232 214 205 199 196 195 192 193 197 198 188 183 178 189 198 207 197 193 174 169 161 133 127 160 197 262 286 329 340 38 346 344 45
253 287 290 189 159 203 244 260 247 229 224 217 212 211 216 219 212 199 196 197 194 200 201 194 203 202 202 195 190 184 177 180 180 171 175 174 168 169 196 161 210 219 229 169 128 56 11 326 301
251 267 277 287 133 214 279 272 233 232 230 232 224 220 218 214 205 197 192 196 195 198 202 198 202 204 206 203 199 192 175 169 169 174 181 183 177 178 168 182 207 225 223 192 227 304 258 278 6
276 229 252 206 201 288 247 299 270 227 230 224 229 214 212 210 208 200 200 194 196 202 199 203 203 207 208 204 202 208 188 188 190 184 186 185 188 188 186 195 209 225 239 223 243 289 343 77 106
281 50 249 189 200 289 192 255 271 225 235 230 225 217 212 205 203 201 203 199 195 195 194 200 205 208 207 206 206 211 210 203 189 193 195 201 202 204 204 207 220 224 227 236 236 242 248 4 41
137 101 95 104 241 255 99 242 282 220 224 236 224 216 208 201 202 201 200 193 196 198 194 195 200 209 211 209 210 214 219 213 204 199 199 201 207 223 228 223 225 229 235 243 242 236 227 230 255
194 187 241 198 199 276 101 226 263 255 265 262 277 223 208 201 198 196 194 188 193 198 196 194 200 205 212 212 210 216 221 220 221 216 213 213 218 225 232 225 225 232 235 237 247 237 234 236 259
195 225 231 255 226 282 146 237 271 175 300 288 271 226 199 200 197 193 196 192 188 195 196 193 201 207 211 216 217 220 222 220 224 225 225 230 230 232 231 233 232 232 240 240 244 243 239 245 234
162 205 226 137 103 270 262 263 268 257 216 227 171 179 192 196 199 196 192 193 191 197 197 203 207 211 215 218 220 221 223 222 227 234 235 235 243 237 240 244 235 234 242 244 248 249 250 254 249
217 147 171 198 230 257 223 278 280 243 196 203 185 200 190 194 197 198 195 192 194 200 200 197 202 204 213 216 219 219 221 226 233 239 241 239 242 242 255 254 240 229 237 240 248 257 261 256 251
160 194 116 127 270 254 283 300 204 227 193 188 188 204 192 189 191 190 191 191 189 187 187 196 201 202 210 213 215 218 222 224 232 235 236 240 245 246 248 243 232 226 233 239 245 250 250 247 249
215 226 212 221 203 237 299 277 155 219 185 201 165 188 187 182 185 188 186 181 182 184 187 192 192 201 215 216 221 222 225 225 226 233 235 233 235 245 249 242 242 240 244 237 241 248 243 248 254